Home > Weather > Tsingtao > Past weeks

Flag for China Past Weather in Tsingtao, Shandong, China — Yesterday and Last 2 Weeks

Now
75 °F

Thunderstorms. Partly sunny.


Feels Like: 73 °F
Forecast: 77 / 88 °F
Wind: 6 mph from Southeast

Location: Qingdao Airport

Current Time: Jul 26, 2016 at 8:54:38 AM

Latest Report: Jul 26, 2016 at 8:00 AM


Visibility: N/A

Pressure: 29.62 "Hg

Humidity: 100%

Dew Point: 75 °F

Location of TsingtaoLocation

Past Weather in Tsingtao — Graph

°F

Tsingtao Temperature Yesterday

Maximum temperature yesterday: 93 °F (at 11:00 AM)
Minimum temperature yesterday: 82 °F (at 4:00 AM)
Average temperature yesterday: 87 °F

High & Low Weather Summary for the Past Weeks

 TemperatureHumidityPressure
High99 °F (Jul 24, 1:00 PM)100% (Jul 14, 2:00 AM)29.80 "Hg (Jul 14, 2:00 AM)
Low68 °F (Jul 15, 2:00 PM)41% (Jul 14, 12:00 PM)29.50 "Hg (Jul 15, 5:00 PM)
Average82 °F78%29.64 "Hg
* Reported Jul 11 7:00 AM — Jul 26 7:00 AM, Tsingtao, Weather by CustomWeather, © 2016

Note: Actual official high and low records may vary slightly from our data, if they occured in-between our weather recording intervals... More about our weather records

Advertising

Tsingtao Weather History for the Previous 24 Hours

Scroll right to see more
 ConditionsComfort  
Time TempWeatherWind HumidityBarometerVisibility
7:00 AM
Tue, Jul 26
77 °FLots of rain. More clouds than sun.24 mph94%29.65 "Hg1 mi
6:00 AM82 °FScattered clouds.8 mph89%29.62 "Hg4 mi
5:00 AM84 °FClear.8 mph89%29.62 "Hg10 mi
4:00 AM84 °FClear.10 mph84%29.62 "Hg10 mi
3:00 AM82 °FClear.10 mph89%29.62 "Hg10 mi
2:00 AM82 °FPassing clouds.8 mph89%29.62 "HgN/A
1:00 AM82 °FClear.13 mph84%29.65 "Hg10 mi
12:00 AM82 °FClear.10 mph84%29.68 "Hg10 mi
11:00 PM
Mon, Jul 25
82 °FClear.13 mph84%29.65 "Hg10 mi
10:00 PM82 °FClear.13 mph84%29.65 "Hg10 mi
9:00 PM82 °FClear.15 mph84%29.65 "Hg10 mi
8:00 PM84 °FClear.13 mph84%29.65 "Hg10 mi
7:00 PM84 °FSunny.13 mph84%29.65 "Hg10 mi
6:00 PM86 °FSunny.17 mph79%29.62 "Hg10 mi
5:00 PM88 °FClear.17 mph75%29.62 "Hg4 mi
4:00 PM91 °FClear.17 mph67%29.62 "Hg4 mi
3:00 PM91 °FClear.20 mph67%29.65 "Hg4 mi
2:00 PM93 °FClear.15 mph63%29.65 "Hg4 mi
1:00 PM93 °FSunny.17 mph63%29.68 "Hg10 mi
12:00 PM93 °FSunny.13 mph63%29.68 "Hg10 mi
11:00 AM93 °FPassing clouds.10 mph63%29.71 "HgN/A
10:00 AM90 °FSunny.13 mph71%29.71 "Hg10 mi
9:00 AM88 °FSunny.13 mph70%29.71 "Hg10 mi
8:00 AM86 °FSunny.10 mph75%29.74 "Hg10 mi
Weather by CustomWeather, © 2016

See weather overviewHow to use our weather pages